星链-5101 (STARLINK-5101 )

导读 | 星芒AI

STARLINK-5101 是 SpaceX Starlink 卫星互联网项目中的一颗低轨通信卫星。该卫星属于 Starlink 任务的第五批部署,旨在为全球用户提供高速互联网服务。它运行在约 550 公里的近地轨道,采用先进的相控阵天线和激光通信技术,以提升网络连接的稳定性和速度。STARLINK-5101 与数千颗其他 Starlink 卫星共同构建了一个覆盖广泛的卫星网络,特别服务于偏远和网络基础设施薄弱的地区。

基本信息
目录编号:
54822
目录名称:
STARLINK-5101
国际标识:
2022-177C
轨道中心:
EARTH
卫星名称:
星链-5101
卫星全名:
星链-5101 (STARLINK-5101 )
卫星状态:
在轨 (已飞行1042 天)
发射日期:
2022-12-28 UTC
国别 :
美国 (US)
星等 :
--
轨道信息
数据来源 国际轨道数据
星历时间: 2025-11-04T10:33:06+0800
20小时前
查看轨道信息
半长轴: 6937.242km
偏心率: 0.0001219
轨道倾角: 43.004°
近地点辐角 263.808°
升交点赤经 95.776°
平近点角 96.262°
近地点: 558.261km
远地点: 559.953km
周期: 95.838分钟
每日圈数: 15.02528
详细信息
固有亮度:
5
最大亮度:
2.5
卫星平台:
Starlink v1.5
覆盖范围:
全球
运营商:
太空探索技术公司
运营商所在国:
美国
制造商(研发单位):
太空探索技术公司
制造商所在国:
美国
使用方式:
暂无
卫星简介
星链(Starlink)计划是由太空探索技术公司(SpaceX)提出的一个巨型低轨卫星互联网星座项目,计划在2019年至2024年间在太空搭建由约1.2万颗卫星组成的“星链”网络,其中1584颗将部署在地球上空550千米处的近地轨道,并从2020年开始工作。该卫星仍在工作。
2D轨道图
3D轨道图
轨道高度分析图
轨道倾角分析图
轨道综合分析图
查看轨道综合分析图